{"data":{"norad_id":59486,"intl_designator":"2024-071C","name":"STARLINK-31733","alt_names":[],"object_type":"PAYLOAD","status":"ACTIVE","operator":null,"country":"US","launch_date":"2024-04-13","launch_site_code":"AFETR","launch_vehicle":null,"mission":null,"orbit_class":"UNKNOWN","rcs_meters":null,"size_class":null,"mass_kg":null,"dimensions":null,"purposes":["comms"],"wikipedia_slug":null,"has_3d_model":false,"image_url":null,"decayed_at":null,"tle_current":{"epoch":"2026-05-24T16:44:24.595296Z","epoch_age_seconds":115337,"freshness":"FRESH","line1":"1 59486U 24071C   26144.69750689 -.00001132  00000+0 -31641-4 0  9990","line2":"2 59486  43.0020 270.1798 0001160 287.0593  73.0132 15.27575142119836","mean_motion":15.27575142,"eccentricity":0.000116,"inclination_deg":43.002,"raan_deg":270.1798,"arg_perigee_deg":287.0593,"mean_anomaly_deg":73.0132,"bstar":-3.1641e-5,"rev_number":11983,"period_min":94.267048501107,"perigee_km":482.26774340331,"apogee_km":483.85954195241,"semimajor_km":6861.2006426779,"source":"CELESTRAK","updated_at":"2026-05-25T13:38:18.952684Z"}}}